Location: Pitton
(51.0667°N, 1.7000°W)
Time: 12:37:43
(UTC+00:00)

NOSS 3-3 (A) - Pass Details

Date: 17 September 2019
Orbit: 849 x 1363 km, 63.4° (Epoch: 08 October)

Event Time Altitude Azimuth Distance (km) Brightness Sun altitude
Rises 18:53:49 0° 208° (SSW) 3,469 7.1 -6.5°
Reaches altitude 10° 18:56:13 10° 205° (SSW) 2,574 6.4 -6.9°
Maximum altitude 19:02:05 62° 126° (SE) 1,080 4.0 -7.8°
Drops below altitude 10° 19:08:43 10° 48° (NE) 2,894 6.2 -8.8°
Sets 19:11:34 0° 45° (NE) 3,934 6.9 -9.2°
